Location: Berduj
(43.0019°N, 22.3781°E)
Time: 02:10:29
(UTC+00:00)

Cosmos 2173 Rocket - Pass Details

Date: 19 October 2019
Orbit: 944 x 1001 km, 83.0° (Epoch: 13 November)

Event Time Altitude Azimuth Distance (km) Brightness Sun altitude
Rises 18:16:33 0° 348° (NNW) 3,694 7.3 -28.8°
Reaches altitude 10° 18:19:06 10° 345° (NNW) 2,734 6.6 -29.3°
Maximum altitude 18:25:14 61° 268° (W) 1,090 4.4 -30.4°
Enters shadow 18:28:11 31° 200° (SSW) 1,618 5.1 -30.9°
